Temp
27 27 26 26 26 26 26 25 25 24 24 24 23 23 23 24 25 24 24 24 24 24 25 25 25 25 26 27 27 29 30 29 29 31 33 35 35 37 39 39 39 38
26 27 27 27 26 26 25 25 24 24 23 24 23 24 24 24 24 24 23 23 24 23 24 24 25 25 25 25 25 26 26 27 27 31 32 33 34 36 38 39 39 39
25 25 25 24 24 24 24 24 24 24 23 23 24 24 23 24 23 23 23 23 22 23 23 23 23 24 24 24 24 25 25 26 27 29 31 32 33 35 38 39 39 39
25 25 24 24 24 23 24 23 23 23 23 22 23 23 23 23 23 23 22 23 22 22 22 22 22 23 23 23 23 24 24 26 27 29 29 31 32 34 36 39 39 40
24 24 24 24 24 24 23 22 22 22 22 22 22 23 23 22 22 22 22 21 21 21 21 21 22 22 22 22 23 22 24 26 28 29 29 30 32 34 36 38 39 39
24 24 23 23 23 22 22 21 22 22 22 21 22 22 22 22 21 21 21 20 20 20 20 21 21 21 22 22 22 23 24 25 27 28 29 29 31 33 35 37 38 38
22 22 22 22 22 22 21 21 21 22 22 22 22 21 21 21 21 21 21 21 20 20 19 19 20 20 21 21 21 22 23 24 25 27 28 29 30 32 35 36 37 38
21 21 21 21 21 21 20 20 21 21 21 21 20 21 21 21 21 22 22 20 19 19 19 19 19 20 20 20 20 20 20 22 23 24 26 28 30 31 32 35 37 37
21 20 20 20 19 20 19 20 20 20 21 20 20 20 21 21 21 21 20 19 19 18 19 19 19 20 20 20 20 19 19 21 23 24 25 27 28 29 30 33 36 36
19 19 19 19 18 19 19 19 19 19 20 20 20 20 19 20 20 20 19 18 18 18 18 19 19 20 21 21 21 20 20 21 23 25 26 27 28 29 30 32 34 36
18 18 17 18 18 18 18 18 18 18 19 19 18 18 18 18 18 18 18 17 17 17 18 18 19 19 20 20 22 23 22 22 23 24 25 26 27 28 30 31 33 35
17 17 17 17 17 17 17 17 18 18 17 17 18 16 17 17 16 16 16 16 17 17 17 18 18 19 19 19 20 20 20 20 21 21 23 24 26 28 29 31 32 35
15 15 16 16 16 16 17 17 17 16 16 15 15 15 14 14 14 14 15 16 16 17 17 17 18 18 18 19 19 20 20 20 20 21 22 23 26 27 29 31 32 34
15 15 15 16 16 16 16 15 15 15 14 14 14 13 13 13 13 13 14 14 15 15 17 17 17 17 18 18 19 19 19 19 20 21 22 24 25 27 29 31 33 34
15 15 15 15 15 15 13 13 13 12 12 12 12 12 12 12 13 13 13 13 14 15 16 17 17 17 18 18 18 19 19 19 20 21 22 23 24 26 28 30 32 34
14 14 14 14 13 11 11 11 10 10 10 10 10 10 11 11 12 12 12 12 13 14 16 16 17 18 19 22 23 21 21 21 21 22 23 23 23 25 27 29 32 34
12 12 12 10 10 9 8 8 8 8 8 8 8 9 9 10 11 11 12 12 13 13 14 16 17 18 21 23 24 25 24 23 23 23 24 25 25 25 26 28 30 32
10 10 8 7 7 6 6 6 6 6 6 7 7 8 9 10 10 11 11 13 14 14 15 16 17 20 23 24 24 25 25 23 22 22 22 23 24 26 27 27 29 32
8 6 5 5 5 5 5 5 5 5 6 6 7 8 9 9 10 10 11 13 14 14 14 16 16 21 23 24 24 25 26 25 22 22 22 22 23 25 27 28 29 30
6 4 3 3 4 4 4 4 5 5 6 8 9 9 9 9 10 10 11 12 14 14 15 16 17 20 23 24 25 25 26 25 23 22 22 23 24 25 27 28 29 29
4 3 2 2 3 3 3 4 5 6 7 8 9 9 9 9 10 10 12 13 14 14 15 15 17 22 23 25 25 26 26 26 23 23 23 23 24 26 27 28 29 29
2 1 1 1 2 2 3 4 5 6 7 9 9 9 10 10 10 11 11 12 13 14 15 15 17 22 24 25 26 26 27 24 23 22 22 23 25 26 27 29 29 29
1 0 -0 0 1 1 2 4 5 6 7 9 8 8 8 8 8 9 11 12 13 14 14 15 16 20 24 25 25 26 25 22 22 21 22 23 25 27 29 29 30 30
-0 -1 -1 -1 0 1 2 4 6 7 7 8 7 6 6 7 8 9 10 12 12 13 15 15 17 20 24 25 26 26 25 22 21 20 20 22 24 27 28 29 29 31
-1 -1 -1 -1 0 2 3 4 5 6 7 7 6 6 6 7 8 8 9 11 13 14 19 19 18 21 25 26 26 27 25 23 22 21 20 21 23 25 28 29 29 30
-2 -2 -1 -0 1 2 3 5 6 6 6 5 5 5 5 7 8 8 8 10 13 14 16 18 19 20 22 26 26 26 27 24 23 21 19 20 22 24 25 27 29 30
MSLP
1019.81 1019.69 1019.53 1019.37 1019.13 1018.93 1018.61 1018.25 1017.85 1017.69 1017.21 1016.93 1016.61 1015.81 1015.45 1014.93 1014.61 1014.49 1014.17 1013.97 1013.77 1013.49 1013.17 1012.97 1012.69 1012.33 1011.89 1011.45 1011.01 1010.41 1009.57 1008.93 1008.53 1008.05 1007.45 1006.85 1006.29 1005.57 1004.69 1004.17 1003.97 1003.81
1019.57 1019.49 1019.33 1019.17 1018.89 1018.65 1018.49 1018.25 1017.77 1017.45 1016.85 1016.53 1016.17 1015.69 1014.97 1014.65 1014.21 1014.13 1013.77 1013.45 1013.17 1012.89 1012.69 1012.41 1012.09 1011.73 1011.37 1011.01 1010.61 1010.09 1009.33 1008.77 1008.13 1007.61 1006.97 1006.45 1006.01 1005.33 1004.29 1003.69 1003.41 1003.21
1019.41 1019.29 1019.21 1019.05 1018.85 1018.45 1018.17 1017.89 1017.61 1017.21 1016.77 1016.17 1015.77 1015.37 1014.77 1014.25 1013.85 1013.49 1013.33 1013.09 1012.69 1012.25 1012.13 1011.89 1011.57 1011.25 1010.93 1010.53 1010.09 1009.53 1008.85 1008.25 1007.57 1006.93 1006.53 1005.97 1005.53 1004.93 1003.93 1003.33 1002.97 1002.73
1019.25 1019.17 1019.01 1018.77 1018.57 1018.25 1017.89 1017.61 1017.13 1016.85 1016.41 1015.89 1015.37 1014.93 1014.57 1013.89 1013.53 1013.01 1012.73 1012.49 1012.25 1011.81 1011.49 1011.25 1010.93 1010.57 1010.29 1009.89 1009.57 1008.93 1008.25 1007.61 1006.89 1006.45 1005.97 1005.45 1005.05 1004.57 1003.69 1002.97 1002.53 1002.33
1019.17 1019.01 1018.81 1018.57 1018.29 1017.97 1017.65 1017.37 1016.85 1016.45 1016.05 1015.53 1014.97 1014.57 1014.13 1013.65 1013.21 1012.69 1012.33 1011.97 1011.73 1011.37 1010.97 1010.65 1010.29 1009.93 1009.69 1009.29 1008.97 1008.29 1007.53 1006.81 1006.09 1005.81 1005.37 1004.81 1004.37 1004.13 1003.29 1002.61 1002.09 1001.85
1018.93 1018.77 1018.57 1018.37 1018.05 1017.77 1017.41 1017.05 1016.61 1016.21 1015.65 1015.13 1014.65 1014.13 1013.77 1013.25 1012.81 1012.33 1011.89 1011.45 1011.05 1010.85 1010.41 1010.05 1009.73 1009.33 1009.09 1008.69 1008.25 1007.53 1006.81 1006.09 1005.53 1005.29 1004.73 1004.29 1003.81 1003.41 1002.85 1002.21 1001.61 1001.29
1018.69 1018.49 1018.21 1017.97 1017.69 1017.41 1017.09 1016.65 1016.21 1015.81 1015.33 1014.85 1014.33 1013.81 1013.49 1012.85 1012.25 1011.77 1011.41 1011.13 1010.73 1010.33 1009.97 1009.53 1009.17 1008.77 1008.49 1008.13 1007.57 1006.89 1006.33 1005.85 1005.33 1004.85 1004.33 1003.81 1003.45 1002.77 1002.17 1001.77 1001.09 1000.69
1018.33 1018.13 1017.89 1017.61 1017.33 1016.97 1016.65 1016.17 1015.73 1015.33 1014.93 1014.41 1014.01 1013.37 1013.01 1012.41 1011.85 1011.21 1010.73 1010.53 1010.25 1009.85 1009.49 1009.01 1008.53 1008.09 1007.77 1007.49 1007.01 1006.65 1006.13 1005.69 1005.13 1004.65 1004.05 1003.37 1002.93 1002.49 1001.97 1001.25 1000.49 1000.13
1017.97 1017.69 1017.45 1017.25 1016.93 1016.53 1016.13 1015.77 1015.33 1014.97 1014.65 1014.17 1013.49 1012.93 1012.53 1012.05 1011.45 1010.97 1010.61 1010.21 1009.69 1009.49 1009.01 1008.61 1008.09 1007.57 1007.17 1006.81 1006.33 1005.97 1005.49 1005.01 1004.49 1004.01 1003.41 1002.93 1002.53 1002.09 1001.73 1000.97 1000.13 999.61
1017.69 1017.45 1017.21 1016.89 1016.53 1016.09 1015.73 1015.33 1015.01 1014.57 1014.17 1013.73 1013.21 1012.73 1012.13 1011.61 1011.33 1010.81 1010.45 1009.97 1009.45 1009.01 1008.61 1008.21 1007.65 1007.13 1006.61 1006.09 1005.61 1005.21 1004.81 1004.33 1003.81 1003.25 1002.65 1002.29 1001.97 1001.53 1001.17 1000.69 999.85 999.21
1017.53 1017.25 1016.93 1016.57 1016.21 1015.81 1015.37 1014.89 1014.57 1014.25 1013.73 1013.41 1013.01 1012.29 1011.97 1011.61 1011.05 1010.73 1010.29 1009.69 1009.09 1008.65 1008.17 1007.77 1007.33 1006.81 1006.25 1005.69 1005.05 1004.49 1004.05 1003.57 1003.17 1002.77 1002.25 1001.85 1001.53 1001.21 1000.77 1000.33 999.65 998.85
1017.41 1017.09 1016.77 1016.45 1016.05 1015.61 1015.21 1014.81 1014.29 1013.85 1013.53 1013.05 1012.81 1012.33 1011.61 1011.25 1010.93 1010.37 1010.01 1009.45 1008.89 1008.29 1007.81 1007.37 1006.97 1006.49 1005.89 1005.37 1004.89 1004.49 1004.09 1003.57 1003.01 1002.65 1002.17 1001.69 1001.17 1000.69 1000.25 999.77 999.37 998.61
1017.17 1016.85 1016.53 1016.17 1015.81 1015.45 1015.01 1014.49 1014.17 1013.85 1013.37 1013.01 1012.65 1012.21 1011.77 1011.17 1010.65 1010.21 1009.61 1009.13 1008.41 1007.93 1007.33 1006.97 1006.49 1006.05 1005.49 1004.89 1004.41 1003.97 1003.53 1003.01 1002.41 1001.97 1001.61 1001.17 1000.57 1000.05 999.57 999.17 998.81 998.25
1017.09 1016.81 1016.49 1016.21 1015.81 1015.37 1014.93 1014.57 1014.13 1013.69 1013.45 1012.93 1012.49 1011.97 1011.41 1010.89 1010.37 1009.81 1009.17 1008.81 1008.05 1007.49 1006.89 1006.41 1006.01 1005.45 1004.97 1004.45 1003.89 1003.45 1003.13 1002.73 1002.13 1001.41 1000.85 1000.33 999.85 999.41 998.97 998.53 998.09 997.65
1017.17 1016.81 1016.53 1016.21 1015.81 1015.45 1015.13 1014.61 1014.17 1013.77 1013.25 1012.85 1012.37 1011.85 1011.25 1010.69 1010.05 1009.45 1008.73 1008.05 1007.53 1006.97 1006.33 1005.93 1005.41 1004.89 1004.29 1003.81 1003.29 1002.81 1002.57 1002.09 1001.61 1001.05 1000.49 999.93 999.41 998.97 998.49 997.97 997.41 996.93
1017.21 1016.93 1016.61 1016.25 1016.01 1015.65 1015.09 1014.69 1014.17 1013.65 1013.13 1012.53 1012.01 1011.53 1010.81 1010.13 1009.57 1008.89 1008.37 1007.65 1006.93 1006.21 1005.65 1005.13 1004.65 1004.17 1003.53 1003.01 1002.45 1001.89 1001.49 1001.13 1000.69 1000.21 999.77 999.37 998.97 998.49 997.89 997.37 996.77 996.33
1017.29 1016.97 1016.69 1016.45 1016.13 1015.65 1015.17 1014.69 1014.09 1013.53 1012.89 1012.21 1011.49 1010.89 1010.29 1009.61 1008.93 1008.17 1007.57 1006.97 1006.33 1005.65 1004.97 1004.41 1003.81 1003.25 1002.73 1002.25 1001.69 1001.09 1000.69 1000.21 999.77 999.29 998.93 998.57 998.17 997.81 997.25 996.77 996.45 996.13
1017.41 1017.13 1016.93 1016.65 1016.25 1015.69 1015.09 1014.53 1013.93 1013.25 1012.57 1011.81 1011.05 1010.29 1009.45 1008.85 1008.17 1007.41 1006.73 1006.09 1005.45 1004.81 1004.25 1003.65 1003.05 1002.41 1001.85 1001.33 1000.93 1000.41 1000.05 999.73 999.41 999.13 998.77 998.41 997.93 997.33 996.85 996.57 996.21 995.81
1017.57 1017.29 1017.01 1016.65 1016.17 1015.53 1014.93 1014.33 1013.69 1012.93 1012.17 1011.29 1010.37 1009.65 1008.93 1008.17 1007.41 1006.73 1006.05 1005.37 1004.77 1004.09 1003.41 1002.77 1002.17 1001.49 1001.09 1000.57 1000.05 999.65 999.25 998.97 998.65 998.53 998.29 997.89 997.57 997.01 996.41 996.01 995.89 995.57
1017.69 1017.45 1017.05 1016.53 1015.93 1015.33 1014.69 1014.05 1013.45 1012.57 1011.69 1010.93 1009.85 1008.85 1008.25 1007.53 1006.85 1006.13 1005.21 1004.53 1003.93 1003.37 1002.69 1001.97 1001.29 1000.61 1000.17 999.69 999.25 998.81 998.49 998.21 997.89 997.81 997.53 997.17 996.81 996.41 995.81 995.37 995.25 995.17
1017.81 1017.49 1017.05 1016.33 1015.65 1015.09 1014.41 1013.73 1013.05 1012.17 1011.13 1010.21 1009.49 1008.81 1008.01 1007.21 1006.41 1005.61 1004.77 1004.09 1003.37 1002.65 1002.05 1001.33 1000.45 999.69 999.25 998.69 998.25 997.93 997.65 997.41 997.09 996.93 996.65 996.29 995.97 995.61 995.09 994.65 994.57 994.49
1017.89 1017.37 1016.77 1016.17 1015.53 1014.81 1014.17 1013.29 1012.45 1011.77 1010.97 1010.05 1009.29 1008.61 1007.97 1007.29 1006.37 1005.69 1004.73 1003.85 1002.97 1002.17 1001.41 1000.53 999.61 998.77 998.33 997.81 997.41 997.13 996.85 996.65 996.41 996.29 996.09 995.61 995.05 994.65 994.29 994.01 993.97 993.97
1018.01 1017.41 1016.69 1016.09 1015.49 1014.69 1013.85 1013.05 1012.17 1011.25 1010.57 1009.97 1009.21 1008.57 1007.97 1007.21 1006.45 1005.57 1004.69 1003.69 1002.61 1001.73 1000.93 1000.01 999.01 997.97 997.45 996.97 996.61 996.37 996.25 996.09 995.81 995.65 995.45 995.01 994.41 993.81 993.37 993.13 993.05 993.09
1017.93 1017.41 1016.77 1016.01 1015.41 1014.65 1013.65 1012.77 1012.09 1011.41 1010.81 1010.25 1009.65 1008.65 1007.85 1007.25 1006.37 1005.33 1004.41 1003.49 1002.45 1001.37 1000.53 999.57 998.45 997.33 996.65 996.13 995.73 995.57 995.53 995.45 995.21 995.17 995.05 994.65 993.93 993.29 992.89 992.65 992.61 992.65
1017.81 1017.29 1016.77 1016.05 1015.25 1014.45 1013.73 1012.85 1012.01 1011.45 1010.81 1010.17 1009.65 1008.93 1008.13 1007.21 1006.21 1005.21 1004.13 1003.13 1002.05 1000.93 999.81 998.93 997.97 996.85 996.05 995.49 995.05 994.73 994.69 994.69 994.49 994.41 994.45 994.17 993.65 992.89 992.33 992.05 991.93 991.97
1017.69 1017.13 1016.53 1015.97 1015.09 1014.21 1013.57 1012.93 1012.17 1011.37 1010.73 1010.21 1009.53 1008.93 1007.97 1007.01 1006.13 1005.13 1003.93 1002.69 1001.53 1000.41 999.25 998.37 997.53 996.37 995.49 994.81 994.33 994.01 993.81 993.81 993.69 993.61 993.57 993.49 993.13 992.57 992.05 991.57 991.41 991.25
Wind_Speed
7 6 8 8 9 9 10 11 10 11 12 10 13 13 12 14 13 13 14 12 13 13 13 13 12 15 12 12 13 13 12 11 12 13 15 13 14 16 16 15 12 10
8 8 8 8 9 8 9 9 12 13 12 13 11 12 13 12 13 12 12 14 13 13 13 14 12 13 12 12 13 13 13 12 16 11 14 14 14 16 16 16 14 12
7 8 9 9 10 12 11 10 10 11 11 15 13 13 13 11 16 13 14 13 13 14 12 14 14 13 14 14 13 15 12 16 15 12 12 13 14 14 15 13 12 13
7 8 9 10 10 11 10 12 11 11 12 11 13 13 11 14 12 16 14 16 13 13 14 14 14 12 13 13 15 12 14 15 13 12 11 13 13 14 15 13 13 12
8 9 9 10 10 10 11 11 14 14 11 13 13 12 14 12 14 14 15 13 12 12 14 13 13 14 12 14 13 15 16 13 12 10 11 12 12 13 14 13 13 13
9 8 9 9 10 10 11 11 13 14 15 15 13 14 11 16 14 14 13 12 12 12 14 12 13 12 13 14 12 14 13 12 11 12 13 11 13 12 12 13 14 14
10 10 11 10 11 11 11 13 12 14 13 12 14 12 14 16 15 14 15 17 15 16 14 16 15 14 12 12 14 13 12 14 13 14 14 14 13 14 14 15 15 13
10 9 10 10 12 11 13 12 12 12 11 14 13 15 14 18 21 16 13 16 15 15 15 15 13 15 13 11 13 13 18 15 15 16 14 16 11 13 14 14 13 13
10 10 10 11 12 11 12 12 13 12 12 13 14 15 18 14 16 20 21 17 17 18 18 17 17 16 12 13 12 15 15 16 14 13 15 15 16 14 14 15 14 12
10 10 12 11 12 12 14 13 12 12 12 13 17 16 15 19 18 16 19 19 20 18 18 18 18 16 17 16 15 14 14 16 15 14 12 15 16 15 15 14 14 12
12 12 12 12 12 11 13 12 12 12 13 17 15 16 19 16 17 18 18 17 19 19 18 18 17 18 18 18 16 14 13 13 14 13 12 14 15 16 15 15 14 13
12 12 12 13 14 14 15 16 14 15 17 13 16 18 17 18 17 15 17 19 19 19 19 18 18 18 18 18 18 17 16 16 16 16 15 16 16 16 16 14 14 13
11 11 12 13 13 14 14 14 17 16 14 19 14 18 18 18 19 19 17 19 20 19 19 19 18 18 18 18 18 17 17 17 16 15 16 15 16 16 15 13 13 14
11 12 13 13 13 13 17 17 14 17 19 17 18 17 18 20 19 20 19 17 19 19 18 18 18 18 18 18 17 17 16 17 17 17 16 15 14 14 14 15 14 14
12 12 12 13 13 17 17 16 19 17 17 17 16 17 17 18 19 19 20 21 20 20 19 18 17 16 14 14 15 17 16 16 17 17 17 16 14 15 15 16 15 13
12 12 12 13 15 16 16 19 16 17 17 17 18 18 18 17 18 20 21 20 20 19 18 16 15 14 18 26 24 17 15 15 14 16 16 15 15 16 15 15 15 12
12 12 13 15 14 14 14 15 16 15 15 16 16 15 16 17 17 20 23 20 19 18 18 16 15 14 26 26 26 29 21 17 16 14 13 14 15 15 14 14 14 14
12 13 13 14 14 14 14 15 15 16 16 16 15 15 16 14 19 21 18 19 16 17 17 16 16 21 27 27 27 28 26 19 16 15 14 15 16 16 14 13 13 12
12 13 14 13 14 14 14 15 15 16 17 17 17 15 15 19 18 20 18 17 17 17 17 16 16 23 27 27 26 27 27 24 16 16 16 16 17 17 15 12 11 12
12 13 13 14 14 14 15 15 15 17 17 16 17 18 17 16 17 17 18 17 15 16 16 16 17 22 27 28 27 27 27 24 17 17 16 17 18 17 15 14 13 12
12 13 13 14 15 15 15 16 16 16 18 15 15 17 17 18 17 18 17 18 17 15 14 16 15 26 28 28 27 27 26 24 17 15 15 16 17 18 17 13 11 11
13 14 14 14 15 16 16 15 16 16 17 18 17 16 16 16 17 16 17 19 19 19 17 15 17 28 28 28 27 26 26 17 16 15 15 16 17 17 17 14 12 12
12 13 15 15 15 17 17 17 17 18 18 15 17 17 17 18 17 17 16 18 19 19 18 17 17 24 29 29 27 25 21 12 14 12 13 15 16 16 14 13 11 11
12 12 14 15 15 16 18 16 15 15 15 15 16 18 18 17 17 17 17 16 19 20 18 17 16 22 31 29 27 25 19 13 13 10 12 14 14 15 13 12 14 22
12 12 13 14 16 15 16 17 17 16 15 14 14 15 16 15 16 16 17 17 16 17 25 22 17 21 29 29 28 25 18 12 12 11 12 13 13 13 13 13 12 15
11 13 13 13 15 16 15 14 14 15 15 15 14 13 14 14 15 15 18 17 17 18 16 16 17 16 19 28 25 24 23 13 9 12 11 13 13 12 11 10 11 12
Wind_Direction
284 288 289 291 288 288 292 295 293 290 289 290 291 294 291 294 296 295 292 290 288 284 285 281 278 278 274 274 272 272 270 280 284 279 279 281 281 277 261 248 241 232
289 287 288 291 291 286 282 284 289 291 292 291 288 289 290 290 289 289 289 288 285 281 282 281 277 276 278 279 280 277 277 273 273 269 271 278 279 277 267 251 245 241
292 293 290 288 286 287 286 283 283 286 288 290 287 287 289 290 292 289 286 284 284 284 281 282 278 275 273 274 274 275 272 273 268 266 268 273 277 276 272 256 246 241
293 290 293 289 285 286 287 289 288 287 286 287 286 288 287 291 290 289 287 286 280 281 283 280 274 271 270 269 274 270 270 267 265 267 268 270 269 272 271 260 247 243
294 294 290 288 286 284 287 287 290 292 288 285 287 286 288 287 288 286 285 283 279 281 282 278 275 270 269 271 267 268 265 262 258 258 262 265 267 270 273 263 246 241
291 287 286 284 286 288 287 285 285 289 289 290 287 290 287 288 283 283 282 281 281 281 281 278 275 271 270 271 269 266 266 266 267 263 263 265 270 268 270 264 249 240
293 294 293 292 289 284 284 285 285 288 288 287 289 284 290 287 284 285 289 291 287 287 283 281 279 275 269 267 266 265 271 275 277 272 268 268 266 269 267 262 250 240
295 295 294 295 295 293 291 289 288 289 288 292 288 290 291 294 294 289 285 287 286 287 285 280 272 270 267 265 265 268 270 268 266 267 267 267 268 270 274 269 249 238
301 301 301 299 297 294 291 292 293 292 292 291 293 297 298 294 293 294 296 293 288 287 288 285 285 281 275 265 258 260 261 264 261 260 258 262 266 264 267 271 259 240
304 304 304 303 303 302 300 299 297 297 297 294 300 299 297 298 296 294 294 293 289 286 286 284 284 283 281 277 268 258 257 260 260 256 254 258 261 265 266 269 264 247
307 309 307 305 302 300 300 300 301 301 301 304 303 302 299 299 299 296 292 291 289 286 287 284 284 283 281 280 279 273 270 274 276 277 272 266 263 264 265 264 268 254
305 308 309 309 308 306 308 307 306 307 307 305 305 299 300 296 294 295 293 290 291 287 284 283 282 282 279 276 273 272 271 271 269 267 267 267 265 261 258 259 262 262
305 304 304 302 306 307 307 309 308 307 307 305 304 300 299 299 296 293 294 291 286 287 282 280 280 278 277 275 272 270 269 268 268 261 260 259 257 257 256 257 254 256
305 305 305 306 306 309 312 309 307 309 304 305 301 300 299 297 297 295 293 292 289 285 283 280 276 276 273 271 268 266 266 267 268 267 262 256 254 254 255 256 254 251
305 308 307 306 310 313 310 310 311 306 304 301 299 298 296 295 294 292 291 291 289 283 280 276 274 271 271 267 267 264 262 261 262 262 261 263 262 260 257 255 253 247
307 306 307 311 312 311 311 311 306 306 303 301 298 295 291 289 289 295 292 288 288 285 279 275 271 269 267 266 264 264 260 258 252 253 253 252 254 256 255 253 254 245
309 309 314 314 311 308 307 307 306 305 302 298 294 288 285 286 286 294 299 288 281 281 280 274 269 264 268 267 267 265 266 267 264 261 261 259 253 252 254 253 254 257
312 313 314 312 310 305 306 308 305 304 302 300 296 292 291 284 291 291 288 289 279 276 275 273 271 267 270 273 268 267 265 264 262 264 264 263 264 259 254 252 254 255
317 316 314 310 309 308 307 308 307 305 305 303 299 296 296 299 294 294 287 286 281 278 276 272 268 272 271 273 274 268 267 264 262 258 257 256 255 257 253 244 242 247
318 315 310 310 310 311 309 308 309 306 305 303 298 299 296 295 295 286 284 278 278 279 275 273 273 270 274 273 274 273 267 265 261 258 257 256 254 252 251 244 236 245
316 315 312 313 314 312 312 309 309 309 307 309 313 315 314 312 311 309 307 299 289 280 275 275 271 276 278 279 278 275 268 264 261 258 255 252 252 251 251 245 240 244
317 314 315 316 315 315 314 311 312 313 315 318 316 316 314 311 309 305 303 302 298 292 283 277 277 281 284 285 283 278 271 263 261 259 260 260 253 248 247 245 242 239
316 316 316 316 315 315 315 316 316 321 323 323 317 317 316 315 310 306 304 301 297 294 288 281 280 284 290 289 285 280 271 262 262 258 256 254 255 253 247 241 230 224
314 315 314 314 315 315 316 315 315 317 319 320 318 317 317 315 309 304 303 301 297 294 287 280 281 285 291 292 288 280 269 259 255 254 254 258 258 253 254 254 253 254
312 312 312 312 314 314 316 316 319 320 316 317 315 312 309 309 308 306 304 302 296 294 299 297 287 287 292 293 289 283 272 253 252 249 252 252 255 257 250 246 242 244
311 310 310 312 312 313 314 316 316 316 319 318 314 312 310 308 307 304 304 304 300 294 287 296 299 290 293 297 289 280 275 260 237 246 243 248 249 258 261 260 252 247